Home   Weather   Austin   Past weeks

Flag for USA Past Weather in Austin, Texas, USA — Yesterday and Last 2 Weeks

Now
75 °F

Sunny.


Feels Like: 77 °F
Forecast: 50 / 76 °F
Wind: 6 mph from Southeast

Location: Camp Mabry / Austin City

Current Time: Jan 20, 2017 at 4:25:21 pm

Latest Report: Jan 20, 2017 at 3:51 pm


Visibility: 10 mi

Pressure: 29.67 "Hg

Humidity: 40%

Dew Point: 49 °F

Location of AustinLocation

Past Weather in Austin — Graph

°F

Austin Temperature Yesterday

Maximum temperature yesterday: 71 °F (at 3:51 pm)
Minimum temperature yesterday: 52 °F (at 3:51 am)
Average temperature yesterday: 58 °F

High & Low Weather Summary for the Past Weeks

 TemperatureHumidityPressure
High80 °F (Jan 11, 2:51 pm)100% (Jan 13, 8:08 am)30.82 "Hg (Jan 13, 8:08 am)
Low20 °F (Jan 7, 4:51 am)20% (Jan 8, 2:51 pm)29.66 "Hg (Jan 20, 2:51 pm)
Average55 °F78%30.15 "Hg
* Reported Jan 5 2:51 pm — Jan 20 2:51 pm, Austin, Weather by CustomWeather, © 2017

Note: Actual official high and low records may vary slightly from our data, if they occured in-between our weather recording intervals... More about our weather records

Advertising

Austin Weather History for the Previous 24 Hours

Scroll right to see more
 ConditionsComfort  
Time TempWeatherWind HumidityBarometerVisibility
2:51 pm
Fri, Jan 20
74 °FSunny.7 mph43%29.66 "Hg10 mi
1:51 pm72 °FSunny.No wind44%29.69 "Hg10 mi
12:51 pm71 °FSunny.3 mph51%29.73 "Hg10 mi
11:51 am66 °FSunny.3 mph68%29.80 "Hg10 mi
10:51 am60 °FPassing clouds.3 mph83%29.83 "Hg9 mi
10:38 am59 °FScattered clouds.5 mph87%29.84 "Hg7 mi
10:17 am57 °FFog.6 mph90%29.84 "Hg5 mi
9:51 am56 °FSunny.5 mph87%29.82 "Hg10 mi
8:51 am53 °FSunny.No wind89%29.80 "Hg9 mi
7:51 am49 °FFog.No wind93%29.80 "Hg5 mi
6:51 am48 °FFog.No wind93%29.78 "Hg6 mi
5:51 am48 °FClear.No wind96%29.76 "Hg8 mi
4:51 am50 °FPassing clouds.No wind93%29.72 "Hg10 mi
3:51 am50 °FClear.No wind93%29.73 "Hg10 mi
2:51 am51 °FClear.No wind89%29.72 "Hg10 mi
1:51 am53 °FClear.No wind86%29.72 "Hg10 mi
12:51 am54 °FClear.No wind90%29.72 "Hg10 mi
11:51 pm
Thu, Jan 19
54 °FClear.No wind90%29.73 "Hg10 mi
10:51 pm56 °FClear.No wind87%29.75 "Hg10 mi
9:51 pm56 °FClear.3 mph90%29.74 "Hg10 mi
8:51 pm58 °FClear.3 mph87%29.74 "Hg10 mi
7:51 pm60 °FClear.3 mph83%29.72 "Hg10 mi
6:51 pm63 °FClear.5 mph75%29.71 "Hg10 mi
5:51 pm66 °FSunny.7 mph65%29.70 "Hg10 mi
4:51 pm70 °FSunny.7 mph57%29.70 "Hg10 mi
Weather by CustomWeather, © 2017

See weather overviewHow to use our weather pages